This is the latest recevied weather packets stored in our database for station/object WV8BRW. If no packets are shown the sender has not sent any weather packets the latest 10 day(s).
| Time | Temp. | Humidity | Pressure | Rain* | Wind** | Luminosity | Snow |
|---|---|---|---|---|---|---|---|
| 1777568260 | 11.11° C | 71% | 1015 hPa | 0 mm | - | 320 W/m² | - |
| 1777567957 | 11.11° C | 70% | 1014.9 hPa | 0 mm | - | 281 W/m² | - |
| 1777567652 | 11.11° C | 73% | 1014.8 hPa | 0 mm | - | 264 W/m² | - |
| 1777567350 | 10.56° C | 71% | 1014.8 hPa | 0 mm | - | 312 W/m² | - |
| 1777567048 | 10.56° C | 71% | 1014.7 hPa | 0 mm | - | 311 W/m² | - |
| 1777566746 | 11.11° C | 70% | 1014.8 hPa | 0 mm | - | 335 W/m² | - |
| 1777566444 | 10.56° C | 72% | 1014.8 hPa | 0 mm | - | 308 W/m² | - |
| 1777566141 | 10.56° C | 72% | 1014.5 hPa | 0 mm | - | 331 W/m² | - |
| 1777565836 | 10.56° C | 72% | 1014.8 hPa | 0 mm | - | 331 W/m² | - |
| 1777565533 | 10.56° C | 72% | 1014.7 hPa | 0 mm | - | 274 W/m² | - |
| 1777565229 | 10.56° C | 73% | 1014.7 hPa | 0 mm | - | 229 W/m² | - |
| 1777564926 | 11.11° C | 71% | 1014.7 hPa | 0 mm | - | 214 W/m² | - |
| 1777564620 | 11.11° C | 70% | 1014.6 hPa | 0 mm | - | 392 W/m² | - |
| 1777564316 | 10.56° C | 72% | 1014.8 hPa | 0 mm | - | 309 W/m² | - |
| 1777564013 | 11.11° C | 70% | 1014.8 hPa | 0 mm | - | 296 W/m² | - |
| 1777563709 | 10.56° C | 70% | 1014.6 hPa | 0 mm | - | 451 W/m² | - |
| 1777563405 | 10.56° C | 70% | 1014.7 hPa | 0 mm | - | 592 W/m² | - |
| 1777563100 | 11.11° C | 72% | 1014.8 hPa | 0 mm | - | 266 W/m² | - |
| 1777562795 | 11.11° C | 75% | 1014.4 hPa | 0 mm | - | 355 W/m² | - |
| 1777562494 | 10.56° C | 73% | 1014.5 hPa | 0 mm | - | 229 W/m² | - |
| 1777562191 | 10.56° C | 74% | 1014.7 hPa | 0 mm | - | 192 W/m² | - |
| 1777561888 | 11.11° C | 74% | 1014.4 hPa | 0 mm | - | 210 W/m² | - |
| 1777561585 | 10.56° C | 72% | 1014.3 hPa | 0 mm | - | 242 W/m² | - |
| 1777561281 | 11.11° C | 72% | 1014.3 hPa | 0 mm | - | 229 W/m² | - |
| 1777560981 | 11.11° C | 73% | 1014.1 hPa | 0 mm | - | 278 W/m² | - |
* Rain latest hour (hover to see other rain measurements)
** Current wind speed in m/s (hover to see current wind gust speed)